Location: Gleizolles
(44.4833°N, 6.7667°E)
Time: 01:00:49
(UTC+00:00)

Courier 1B Rocket - Pass Details

Date: 28 June 2024
Orbit: 920 x 1201 km, 28.3° (Epoch: 23 July)

Event Time Altitude Azimuth Distance (km) Brightness Sun altitude
Exits shadow 01:44:08 19° 178° (S) 2,148 6.3 -16.2°
Drops below altitude 10° 01:48:27 10° 138° (SE) 2,766 7.2 -15.8°
Sets 01:52:04 0° 121° (ESE) 3,773 8.1 -15.5°
